Location: Okie-Tex Star Party
(36.8978°N, 102.9520°W)
Time: 15:33:41
(UTC-05:00)

Amateur Radio Satellites - All Passes

Search period start: 30 April 2017 15:03
Search period end: 01 May 2017 15:03
Location: Okie-Tex Star Party, 36.8978°N, 102.9520°W

Satellite Date Start Highest point End Downlink Frequencies (MHz)
Time Altitude Azimuth
SO-50 30 Apr 15:19:34 15:23:55 45° 56° (NE) 15:28:14 436.795
BEESAT 3 30 Apr 15:22:16 15:23:41 12° 315° (NW) 15:25:06 437.485
BEESAT 2 30 Apr 15:28:55 15:32:03 22° 309° (NW) 15:35:15 435.950
ISS 30 Apr 15:31:24 15:34:31 43° 225° (SW) 15:37:37 437.550
SPROUT 30 Apr 15:34:13 15:36:09 13° 294° (WNW) 15:38:05 437.525
50 SAT 30 Apr 15:35:45 15:37:29 13° 292° (WNW) 15:39:13 437.505
DX 1 30 Apr 15:40:32 15:44:16 29° 290° (WNW) 15:47:59 434.975-435.025
ITAMSAT 1 30 Apr 15:51:45 15:56:33 40° 70° (ENE) 16:01:21 435.822/435.867
BEESAT 30 Apr 15:54:30 15:57:56 19° 94° (E) 16:01:21 436.000
Oscar 19 30 Apr 15:58:02 16:00:54 15° 268° (W) 16:03:46 437.125/150
Tancredo 1 30 Apr 16:14:44 16:15:01 10° 233° (SW) 16:15:19 437.200
JUGNU 30 Apr 16:15:42 16:16:28 10° 168° (SSE) 16:17:15 437.505
Gurwin Techsat 1B 30 Apr 16:35:46 16:37:34 12° 270° (W) 16:39:24 435.225
UKube-1 30 Apr 16:36:55 16:37:56 11° 297° (WNW) 16:38:58 .
ITUPSAT 1 30 Apr 16:37:06 16:41:48 55° 101° (E) 16:46:29 437.325
AO-7 30 Apr 16:40:12 16:48:30 84° 253° (WSW) 16:56:50 .
YUBILEINY 30 Apr 16:41:02 16:49:51 89° 266° (W) 16:58:41 435.215
MOZHAYETS 4 30 Apr 16:45:55 16:50:07 34° 97° (E) 16:54:18
SO-50 30 Apr 17:01:10 17:03:58 16° 251° (WSW) 17:06:47 436.795
RS-15 30 Apr 17:16:02 17:28:20 85° 60° (ENE) 17:39:58 29.354- 29.394
BEESAT 30 Apr 17:31:23 17:35:48 38° 289° (WNW) 17:40:12 436.000
ITAMSAT 1 30 Apr 17:32:10 17:36:06 22° 265° (W) 17:40:04 435.822/435.867
CUBESAT XI-V 30 Apr 17:48:54 17:52:55 27° 96° (E) 17:56:52 437.345
JUGNU 30 Apr 18:01:36 18:04:37 14° 178° (S) 18:07:38 437.505
KKS-1 30 Apr 18:02:46 18:06:51 36° 98° (E) 18:10:55 437.445
ITUPSAT 1 30 Apr 18:16:32 18:19:08 15° 296° (WNW) 18:21:45 437.325
STARS 30 Apr 18:22:16 18:25:51 25° 96° (E) 18:29:24 437.465
MOZHAYETS 4 30 Apr 18:23:34 18:27:02 21° 292° (WNW) 18:30:30
NO-84 30 Apr 18:31:29 18:35:10 37° 129° (SE) 18:38:35 435.350 FM
AO-7 30 Apr 18:38:22 18:42:15 14° 269° (W) 18:46:10 .
YUBILEINY 30 Apr 18:40:45 18:45:19 15° 282° (WNW) 18:49:56 435.215
DOVE 4 30 Apr 18:41:30 18:46:40 58° 75° (ENE) 18:51:45 437.250
XW-2D 30 Apr 18:47:41 18:51:04 34° 73° (ENE) 18:54:29 145.860 - 145.880
KAITUO 1B 30 Apr 18:53:36 18:56:50 30° 73° (ENE) 19:00:07 145.475/437.950
HO-68 30 Apr 18:53:39 18:57:52 17° 57° (ENE) 19:02:05 435.675
XW-2B 30 Apr 18:54:37 18:58:07 40° 74° (ENE) 19:01:39 145.730 - 145.750
XW-2C 30 Apr 19:06:33 19:10:14 60° 76° (ENE) 19:13:56 145.795 - 145.815
CUTE-I 30 Apr 19:10:25 19:15:41 64° 74° (ENE) 19:20:58 437.470
LilacSat-2 30 Apr 19:10:40 19:14:23 73° 77° (ENE) 19:18:09 437.200
NUDT-PHONESAT 30 Apr 19:26:12 19:29:51 86° 78° (ENE) 19:33:32 437.300
CUBESAT XI-V 30 Apr 19:26:13 19:30:10 27° 291° (WNW) 19:34:05 437.345
XW-2F 30 Apr 19:28:35 19:32:17 69° 259° (W) 19:36:01 145.980 - 146.000
RS-15 30 Apr 19:30:43 19:39:09 23° 260° (W) 19:47:23 29.354- 29.394
SRMSAT 30 Apr 19:33:13 19:35:47 13° 172° (S) 19:38:20 437.500
O/OREOS (USA 219) 30 Apr 19:38:28 19:41:30 17° 58° (ENE) 19:44:30 437.305
KKS-1 30 Apr 19:40:05 19:43:07 18° 293° (WNW) 19:46:08 437.445
JUGNU 30 Apr 19:50:29 19:52:47 12° 188° (S) 19:55:06 437.505
CUTE 1.7 + AOD 2 30 Apr 19:53:22 19:56:53 26° 70° (ENE) 20:00:24 437.475
STARS 30 Apr 19:58:30 20:02:05 25° 291° (WNW) 20:05:39 437.465
XW-2A 30 Apr 19:58:39 20:01:28 25° 72° (ENE) 20:04:16 145.665 - 145.685
SEEDS 30 Apr 20:04:52 20:08:08 22° 69° (ENE) 20:11:26 437.485
NO-84 30 Apr 20:09:42 20:12:46 23° 322° (NW) 20:15:39 435.350 FM
CUBEBUG 2 30 Apr 20:10:51 20:13:52 19° 69° (ENE) 20:16:51 437.445
STRAND 1 30 Apr 20:13:31 20:16:53 17° 93° (E) 20:20:13 437.568
DOVE 4 30 Apr 20:21:30 20:24:36 16° 268° (W) 20:27:40 437.250
XW-2D 30 Apr 20:23:35 20:25:21 13° 267° (W) 20:27:08 145.860 - 145.880
KAITUO 1B 30 Apr 20:28:53 20:30:55 14° 267° (W) 20:32:56 145.475/437.950
XW-2B 30 Apr 20:31:28 20:32:29 11° 268° (W) 20:33:30 145.730 - 145.750
ZACube-1 30 Apr 20:34:59 20:36:11 11° 65° (ENE) 20:37:22 437.345
HO-68 30 Apr 20:37:28 20:44:38 87° 254° (WSW) 20:51:51 435.675
AO-73 30 Apr 20:39:06 20:40:16 11° 65° (ENE) 20:41:27 145.935
Oscar 11 30 Apr 20:48:16 20:50:08 13° 65° (ENE) 20:51:59 .
CUTE-I 30 Apr 20:53:25 20:56:07 14° 268° (W) 20:58:48 437.470
AAUSAT CUBESAT 2 30 Apr 20:58:09 21:02:04 43° 74° (ENE) 21:06:02 437.432
AO-85 30 Apr 20:59:28 21:02:42 23° 52° (NE) 21:06:01 145.980
M-CUBED/EXP-1 PRIME 30 Apr 21:04:50 21:08:18 29° 100° (E) 21:11:32 437.505
O/OREOS (USA 219) 30 Apr 21:16:47 21:21:07 43° 255° (WSW) 21:25:23 437.305
SRMSAT 30 Apr 21:20:56 21:24:07 15° 182° (S) 21:27:20 437.500
UWE-3 30 Apr 21:22:53 21:27:06 78° 78° (ENE) 21:31:17 435.000/436.395/437.385
CUTE 1.7 + AOD 2 30 Apr 21:29:20 21:32:38 22° 265° (W) 21:35:59 437.475
XW-2A 30 Apr 21:32:33 21:34:13 13° 266° (W) 21:35:54 145.665 - 145.685
SEEDS 30 Apr 21:40:10 21:43:40 26° 264° (W) 21:47:12 437.485
CUBEBUG 2 30 Apr 21:46:24 21:50:16 31° 263° (W) 21:54:04 437.445
STRAND 1 30 Apr 21:51:22 21:56:16 48° 288° (WNW) 22:01:09 437.568
BEESAT 3 30 Apr 22:01:12 22:04:14 20° 50° (NE) 22:07:14 437.485
ZACube-1 30 Apr 22:07:53 22:11:58 54° 260° (W) 22:16:02 437.345
OBJECT BX 30 Apr 22:08:37 22:11:08 18° 70° (ENE) 22:13:39 145.990 - 145.960
AO-73 30 Apr 22:11:57 22:16:01 54° 260° (W) 22:20:05 145.935
BEESAT 2 30 Apr 22:12:09 22:13:19 11° 44° (NE) 22:14:29 435.950
Oscar 11 30 Apr 22:21:36 22:25:46 51° 260° (W) 22:29:59 .
HO-68 30 Apr 22:30:14 22:33:11 13° 270° (W) 22:36:09 435.675
DELFI C3 30 Apr 22:35:10 22:39:04 58° 75° (ENE) 22:43:01 145.870
AAUSAT CUBESAT 2 30 Apr 22:35:48 22:37:43 13° 268° (W) 22:39:38 437.432
AO-85 30 Apr 22:39:34 22:43:02 28° 246° (WSW) 22:46:40 145.980
M-CUBED/EXP-1 PRIME 30 Apr 22:39:46 22:42:30 18° 298° (WNW) 22:45:04 437.505
PRISM 30 Apr 22:45:03 22:47:53 18° 94° (E) 22:50:42 437.425
TIGRISAT 30 Apr 22:46:49 22:47:58 11° 92° (E) 22:49:07 435.000
FO-29 30 Apr 22:53:51 22:56:44 14° 93° (E) 22:59:44 435.910
UNISAT 6 30 Apr 23:07:30 23:10:53 22° 95° (E) 23:14:17 437.425
SRMSAT 30 Apr 23:11:18 23:12:27 11° 192° (SSW) 23:13:37 437.500
BEESAT 3 30 Apr 23:38:16 23:41:52 32° 247° (WSW) 23:45:25 437.485
OBJECT BX 30 Apr 23:41:42 23:44:39 23° 264° (W) 23:47:36 145.990 - 145.960
BEESAT 2 30 Apr 23:47:31 23:51:34 76° 243° (WSW) 23:55:35 435.950
PRISM 01 May 00:19:32 00:23:12 31° 289° (WNW) 00:26:49 437.425
TIGRISAT 01 May 00:20:43 00:24:55 55° 285° (WNW) 00:29:12 435.000
VELOX 1 01 May 00:22:26 00:25:14 17° 66° (ENE) 00:28:01 145.980
ESTCUBE 1 01 May 00:28:11 00:32:40 72° 75° (ENE) 00:37:11 437.505/2401.250
AIST 2D 01 May 00:28:21 00:30:59 20° 95° (E) 00:33:38 435.315
LO-87 01 May 00:28:59 00:32:31 49° 261° (W) 00:36:03 145.935 - 145.965
FO-29 01 May 00:36:52 00:42:06 61° 286° (WNW) 00:47:49 435.910
UNISAT 6 01 May 00:43:51 00:47:33 28° 289° (WNW) 00:51:17 437.425
SPROUT 01 May 00:47:49 00:51:25 27° 71° (ENE) 00:55:03 437.525
DUCHIFAT 1 01 May 00:50:28 00:53:05 16° 94° (E) 00:55:42 145.980
EO-79 01 May 00:53:41 00:56:58 22° 95° (E) 01:00:14 145.935-145.965
DX 1 01 May 00:58:52 01:01:24 15° 66° (ENE) 01:03:57 434.975-435.025
PCSat 01 May 01:23:44 01:27:45 22° 106° (ESE) 01:31:48 145.827
BUGSAT 1 01 May 01:33:10 01:35:22 14° 93° (E) 01:37:34 437.445
POLYITAN 1 01 May 01:33:41 01:37:53 68° 102° (ESE) 01:42:04 437.675
QB50P2 01 May 01:40:35 01:44:48 89° 270° (W) 01:49:01 145.880/145.840
UKube-1 01 May 01:50:15 01:54:16 38° 71° (ENE) 01:58:17 .
VELOX 1 01 May 01:57:05 02:01:18 42° 261° (W) 02:05:33 145.980
NANOSAT C BR1 01 May 01:57:38 02:01:48 67° 284° (WNW) 02:05:57 145.865
AIST 2D 01 May 02:01:28 02:04:05 20° 289° (WNW) 02:06:42 435.315
50 SAT 01 May 02:04:20 02:07:44 50° 260° (W) 02:11:09 437.505
SPROUT 01 May 02:24:00 02:27:17 22° 265° (W) 02:30:35 437.525
DUCHIFAT 1 01 May 02:25:02 02:28:51 35° 288° (WNW) 02:32:39 145.980
EO-79 01 May 02:29:10 02:32:39 26° 290° (WNW) 02:36:10 145.935-145.965
Oscar 19 01 May 02:30:41 02:34:52 24° 95° (E) 02:39:01 437.125/150
DX 1 01 May 02:33:01 02:37:11 44° 261° (W) 02:41:23 434.975-435.025
NO-84 01 May 02:44:57 02:47:52 80° 46° (NE) 02:50:41 435.350 FM
BEESAT 01 May 02:59:06 03:02:18 18° 66° (ENE) 03:05:31 436.000
PCSat 01 May 03:05:36 03:10:46 46° 302° (WNW) 03:16:00 145.827
BUGSAT 1 01 May 03:07:09 03:10:51 36° 288° (WNW) 03:14:32 437.445
Gurwin Techsat 1B 01 May 03:10:42 03:15:32 35° 98° (E) 03:20:20 435.225
UKube-1 01 May 03:27:43 03:30:23 16° 266° (W) 03:33:05 .
ITUPSAT 1 01 May 03:41:27 03:46:01 49° 73° (ENE) 03:50:37 437.325
YUBILEINY 01 May 03:45:39 03:51:32 21° 80° (E) 03:57:24 435.215
MOZHAYETS 4 01 May 03:45:50 03:49:32 25° 69° (ENE) 03:53:14
ITAMSAT 1 01 May 04:07:56 04:11:09 16° 93° (E) 04:14:21 435.822/435.867
Oscar 19 01 May 04:09:29 04:14:12 36° 290° (WNW) 04:18:54 437.125/150
BEESAT 01 May 04:35:15 04:39:44 42° 261° (W) 04:44:15 436.000
AO-7 01 May 04:44:44 04:52:21 38° 99° (E) 04:59:55 .
CUBESAT XI-V 01 May 04:50:19 04:53:47 21° 68° (ENE) 04:57:16 437.345
Gurwin Techsat 1B 01 May 04:50:54 04:55:17 27° 293° (WNW) 04:59:39 435.225
KKS-1 01 May 04:58:42 05:02:24 26° 69° (ENE) 05:06:08 437.445
STARS 01 May 05:17:13 05:20:09 18° 67° (ENE) 05:23:05 437.465
ITUPSAT 1 01 May 05:21:24 05:24:05 15° 267° (W) 05:26:46 437.325
MOZHAYETS 4 01 May 05:22:41 05:26:33 27° 264° (W) 05:30:26
RS-15 01 May 05:31:07 05:36:11 14° 95° (E) 05:41:18 29.354- 29.394
SO-50 01 May 05:32:04 05:35:50 25° 112° (ESE) 05:39:34 436.795
YUBILEINY 01 May 05:38:40 05:47:19 73° 278° (W) 05:56:04 435.215
ITAMSAT 1 01 May 05:45:51 05:50:52 52° 288° (WNW) 05:55:52 435.822/435.867
CUBESAT XI-V 01 May 06:26:39 06:30:53 35° 263° (W) 06:35:10 437.345
ISS 01 May 06:34:24 06:36:32 16° 129° (SE) 06:38:40 437.550
KKS-1 01 May 06:35:10 06:38:52 25° 264° (W) 06:42:35 437.445
AO-7 01 May 06:37:21 06:45:05 45° 296° (WNW) 06:52:50 .
DOVE 4 01 May 06:44:37 06:47:17 16° 92° (E) 06:49:52 437.250
STARS 01 May 06:52:05 06:56:10 37° 261° (W) 07:00:17 437.465
XW-2F 01 May 07:04:16 07:06:18 14° 93° (E) 07:08:18 145.980 - 146.000
Tancredo 1 01 May 07:08:21 07:11:23 55° 137° (SE) 07:14:25 437.200
SO-50 01 May 07:11:59 07:16:08 32° 307° (NW) 07:20:15 436.795
STRAND 1 01 May 07:27:16 07:30:59 21° 66° (ENE) 07:34:43 437.568
CUTE-I 01 May 07:30:10 07:34:48 30° 97° (E) 07:39:24 437.470
RS-15 01 May 07:34:26 07:46:17 71° 114° (ESE) 07:58:32 29.354- 29.394
YUBILEINY 01 May 07:42:30 07:45:45 12° 299° (WNW) 07:49:01 435.215
M-CUBED/EXP-1 PRIME 01 May 07:47:19 07:51:24 31° 66° (ENE) 07:55:31 437.505
XW-2D 01 May 07:55:54 07:59:43 73° 101° (E) 08:03:33 145.860 - 145.880
KAITUO 1B 01 May 08:00:13 08:03:59 61° 100° (E) 08:07:44 145.475/437.950
XW-2B 01 May 08:02:58 08:06:49 87° 103° (ESE) 08:10:39 145.730 - 145.750
HO-68 01 May 08:09:08 08:14:11 20° 93° (E) 08:19:12 435.675
ISS 01 May 08:09:39 08:12:46 41° 324° (NW) 08:15:54 437.550
XW-2C 01 May 08:15:12 08:18:58 63° 285° (WNW) 08:22:46 145.795 - 145.815
LilacSat-2 01 May 08:20:06 08:23:51 51° 285° (WNW) 08:27:36 437.200
DOVE 4 01 May 08:21:04 08:25:10 37° 288° (WNW) 08:29:05 437.250
NUDT-PHONESAT 01 May 08:32:34 08:36:10 47° 285° (WNW) 08:39:46 437.300
XW-2F 01 May 08:37:03 08:40:30 33° 287° (WNW) 08:43:58 145.980 - 146.000
Tancredo 1 01 May 08:45:25 08:47:29 16° 333° (NNW) 08:49:33 437.200
XW-2A 01 May 08:54:43 08:57:52 37° 99° (E) 09:01:01 145.665 - 145.685
STRAND 1 01 May 09:05:02 09:09:50 42° 261° (W) 09:14:41 437.568
CUTE-I 01 May 09:10:10 09:14:44 30° 292° (WNW) 09:19:19 437.470
CUTE 1.7 + AOD 2 01 May 09:15:11 09:19:29 72° 101° (ESE) 09:23:45 437.475
UWE-3 01 May 09:15:18 09:18:14 18° 94° (E) 09:21:11 435.000/436.395/437.385
M-CUBED/EXP-1 PRIME 01 May 09:21:56 09:25:45 25° 260° (W) 09:29:37 437.505
SEEDS 01 May 09:25:14 09:29:27 59° 100° (E) 09:33:38 437.485
PRISM 01 May 09:34:29 09:35:01 10° 64° (ENE) 09:35:33 437.425
CUBEBUG 2 01 May 09:38:29 09:42:39 58° 100° (E) 09:46:53 437.445
O/OREOS (USA 219) 01 May 09:47:49 09:51:42 28° 103° (ESE) 09:55:37 437.305
RS-15 01 May 09:48:48 09:59:46 38° 318° (NW) 10:11:01 29.354- 29.394
HO-68 01 May 09:55:15 10:02:23 68° 289° (WNW) 10:09:30 435.675
ZACube-1 01 May 09:58:09 10:01:59 31° 97° (E) 10:05:52 437.345
AO-73 01 May 10:01:52 10:05:41 31° 97° (E) 10:09:35 145.935
UNISAT 6 01 May 10:05:09 10:07:39 15° 67° (ENE) 10:10:07 437.425
Oscar 11 01 May 10:11:04 10:14:59 32° 97° (E) 10:18:54 .
PCSat 01 May 10:14:07 10:16:40 13° 45° (NE) 10:19:12 145.827
AAUSAT CUBESAT 2 01 May 10:17:26 10:21:38 71° 283° (WNW) 10:25:46 437.432
FO-29 01 May 10:46:48 10:52:31 42° 72° (ENE) 10:57:41 435.910
UWE-3 01 May 10:50:54 10:54:43 33° 288° (WNW) 10:58:36 435.000/436.395/437.385
SEEDS 01 May 11:03:25 11:04:35 11° 295° (WNW) 11:05:46 437.485
PRISM 01 May 11:05:37 11:09:43 62° 259° (W) 11:13:51 437.425
OBJECT BX 01 May 11:12:06 11:15:23 31° 97° (E) 11:18:40 145.990 - 145.960
AO-85 01 May 11:13:43 11:15:29 12° 110° (ESE) 11:17:14 145.980
TIGRISAT 01 May 11:16:43 11:21:04 87° 252° (WSW) 11:25:22 435.000
CUBEBUG 2 01 May 11:17:41 11:18:46 11° 295° (WNW) 11:19:53 437.445
O/OREOS (USA 219) 01 May 11:27:14 11:31:02 25° 299° (WNW) 11:34:52 437.305
ZACube-1 01 May 11:34:57 11:38:03 20° 291° (WNW) 11:41:11 437.345
AO-73 01 May 11:38:36 11:41:42 20° 291° (WNW) 11:44:52 145.935
UNISAT 6 01 May 11:39:52 11:44:00 42° 261° (W) 11:48:05 437.425
EO-79 01 May 11:45:11 11:47:08 13° 66° (ENE) 11:49:05 145.935-145.965
HO-68 01 May 11:46:35 11:48:46 12° 307° (NW) 11:50:58 435.675
Oscar 11 01 May 11:47:45 11:50:52 20° 292° (WNW) 11:54:00 .
DELFI C3 01 May 11:48:59 11:52:55 59° 285° (WNW) 11:56:49 145.870
PCSat 01 May 11:55:23 12:00:52 86° 65° (ENE) 12:06:16 145.827
LO-87 01 May 11:59:29 12:01:22 14° 93° (E) 12:03:14 145.935 - 145.965
RS-15 01 May 12:10:15 12:17:34 17° 351° (N) 12:24:51 29.354- 29.394
POLYITAN 1 01 May 12:23:54 12:27:45 36° 72° (ENE) 12:31:36 437.675
ESTCUBE 1 01 May 12:23:55 12:27:01 18° 94° (E) 12:30:06 437.505/2401.250
QB50P2 01 May 12:30:36 12:34:38 48° 74° (ENE) 12:38:43 145.880/145.840
AIST 2D 01 May 12:32:27 12:35:55 83° 258° (WSW) 12:39:24 435.315
FO-29 01 May 12:32:48 12:37:39 24° 264° (W) 12:42:08 435.910
OBJECT BX 01 May 12:46:45 12:48:47 14° 292° (WNW) 12:50:48 145.990 - 145.960
NANOSAT C BR1 01 May 12:46:57 12:51:05 63° 76° (ENE) 12:55:15 145.865
AO-85 01 May 12:51:17 12:55:30 52° 303° (WNW) 12:59:29 145.980
ISS 01 May 13:03:51 13:05:35 14° 24° (NNE) 13:07:19 437.550
DUCHIFAT 1 01 May 13:13:46 13:17:56 68° 259° (W) 13:22:05 145.980
EO-79 01 May 13:18:24 13:22:27 47° 260° (W) 13:26:32 145.935-145.965
BEESAT 3 01 May 13:25:07 13:29:00 68° 117° (ESE) 13:32:58 437.485
LO-87 01 May 13:31:46 13:34:51 28° 288° (WNW) 13:37:54 145.935 - 145.965
50 SAT 01 May 13:32:00 13:32:56 11° 93° (E) 13:33:53 437.505
Tancredo 1 01 May 13:35:51 13:38:30 25° 32° (NNE) 13:41:09 437.200
BEESAT 2 01 May 13:36:46 13:40:14 30° 113° (ESE) 13:43:46 435.950
PCSat 01 May 13:42:46 13:43:26 10° 258° (WSW) 13:44:05 145.827
Oscar 19 01 May 13:45:16 13:49:38 29° 68° (ENE) 13:54:02 437.125/150
VELOX 1 01 May 13:49:09 13:53:19 41° 99° (E) 13:57:28 145.980
BUGSAT 1 01 May 13:53:46 13:57:53 77° 257° (WSW) 14:01:59 437.445
ESTCUBE 1 01 May 13:59:44 14:03:55 37° 288° (WNW) 14:08:05 437.505/2401.250
POLYITAN 1 01 May 14:01:04 14:03:38 16° 266° (W) 14:06:12 437.675
SO-50 01 May 14:05:53 14:08:21 14° 45° (NE) 14:10:47 436.795
QB50P2 01 May 14:09:02 14:10:40 12° 268° (W) 14:12:17 145.880/145.840
SPROUT 01 May 14:10:37 14:14:52 73° 102° (ESE) 14:19:05 437.525
DX 1 01 May 14:23:21 14:27:21 35° 98° (E) 14:31:19 434.975-435.025
RS-15 01 May 14:27:28 14:36:48 24° 28° (NNE) 14:45:50 29.354- 29.394
Gurwin Techsat 1B 01 May 14:29:25 14:34:26 44° 71° (ENE) 14:39:28 435.225
ISS 01 May 14:39:14 14:42:30 85° 37° (NE) 14:45:45 437.550
